TimeCST,TemperatureF,Dew PointF,Humidity,Sea Level PressureIn,VisibilityMPH,Wind Direction,Wind SpeedMPH,Gust SpeedMPH,PrecipitationIn,Events,Conditions,WindDirDegrees,DateUTC
12:15 AM,15.8,12.2,86,30.30,10.0,Calm,Calm,-,N/A,,Clear,0,2012-11-13 06:15:00
12:35 AM,15.8,12.2,86,30.31,10.0,South,3.5,-,N/A,,Clear,180,2012-11-13 06:35:00
12:55 AM,15.8,12.2,86,30.31,10.0,Calm,Calm,-,N/A,,Clear,0,2012-11-13 06:55:00
1:14 AM,17.6,12.2,79,30.30,10.0,South,3.5,-,N/A,,Clear,170,2012-11-13 07:14:00
1:35 AM,17.6,12.2,79,30.30,10.0,Calm,Calm,-,N/A,,Clear,0,2012-11-13 07:35:00
1:54 AM,17.6,12.2,79,30.31,10.0,Calm,Calm,-,N/A,,Clear,0,2012-11-13 07:54:00
2:14 AM,17.6,14.0,86,30.30,10.0,Calm,Calm,-,N/A,,Clear,0,2012-11-13 08:14:00
2:35 AM,19.4,12.2,74,30.30,10.0,Calm,Calm,-,N/A,,Clear,0,2012-11-13 08:35:00
2:54 AM,17.6,14.0,86,30.30,10.0,Calm,Calm,-,N/A,,Clear,0,2012-11-13 08:54:00
3:15 AM,19.4,14.0,80,30.30,10.0,Calm,Calm,-,N/A,,Clear,0,2012-11-13 09:15:00
3:34 AM,19.4,14.0,80,30.30,10.0,Calm,Calm,-,N/A,,Clear,0,2012-11-13 09:34:00
3:54 AM,17.6,14.0,86,30.29,10.0,Calm,Calm,-,N/A,,Clear,0,2012-11-13 09:54:00
4:15 AM,17.6,14.0,86,30.29,10.0,Calm,Calm,-,N/A,,Clear,0,2012-11-13 10:15:00
4:35 AM,17.6,14.0,86,30.29,10.0,Calm,Calm,-,N/A,,Clear,0,2012-11-13 10:35:00
4:54 AM,17.6,14.0,86,30.29,10.0,Calm,Calm,-,N/A,,Clear,0,2012-11-13 10:54:00
5:15 AM,17.6,14.0,86,30.29,10.0,Calm,Calm,-,N/A,,Clear,0,2012-11-13 11:15:00
5:34 AM,17.6,12.2,79,30.29,10.0,Calm,Calm,-,N/A,,Clear,0,2012-11-13 11:34:00
5:55 AM,17.6,12.2,79,30.29,10.0,Calm,Calm,-,N/A,,Clear,0,2012-11-13 11:55:00
6:15 AM,17.6,14.0,86,30.29,10.0,Calm,Calm,-,N/A,,Clear,0,2012-11-13 12:15:00
6:34 AM,17.6,14.0,86,30.30,10.0,Calm,Calm,-,N/A,,Clear,0,2012-11-13 12:34:00
6:55 AM,17.6,12.2,79,30.30,10.0,Calm,Calm,-,N/A,,Clear,0,2012-11-13 12:55:00
7:15 AM,17.6,14.0,86,30.29,10.0,Calm,Calm,-,N/A,,Clear,0,2012-11-13 13:15:00
7:34 AM,17.6,14.0,86,30.30,10.0,Calm,Calm,-,N/A,,Clear,0,2012-11-13 13:34:00
7:55 AM,19.4,14.0,80,30.29,10.0,Calm,Calm,-,N/A,,Clear,0,2012-11-13 13:55:00
8:15 AM,21.2,17.6,86,30.29,10.0,Calm,Calm,-,N/A,,Clear,0,2012-11-13 14:15:00
8:34 AM,23.0,17.6,80,30.29,10.0,SE,4.6,-,N/A,,Clear,140,2012-11-13 14:34:00
8:55 AM,26.6,19.4,74,30.29,10.0,SSE,4.6,-,N/A,,Clear,150,2012-11-13 14:55:00
9:15 AM,28.4,19.4,69,30.29,10.0,SSE,5.8,-,N/A,,Clear,160,2012-11-13 15:15:00
9:34 AM,28.4,21.2,74,30.28,10.0,South,5.8,-,N/A,,Clear,170,2012-11-13 15:34:00
9:55 AM,30.2,23.0,75,30.28,10.0,SSE,5.8,-,N/A,,Clear,160,2012-11-13 15:55:00
10:14 AM,32.0,23.0,69,30.29,10.0,South,5.8,-,N/A,,Clear,170,2012-11-13 16:14:00
10:35 AM,32.0,23.0,69,30.28,10.0,South,6.9,-,N/A,,Clear,180,2012-11-13 16:35:00
10:55 AM,33.8,23.0,65,30.27,10.0,South,8.1,-,N/A,,Clear,170,2012-11-13 16:55:00
11:14 AM,37.4,23.0,56,30.26,10.0,South,10.4,-,N/A,,Clear,170,2012-11-13 17:14:00
11:35 AM,39.2,23.0,52,30.25,10.0,South,9.2,-,N/A,,Clear,170,2012-11-13 17:35:00
11:54 AM,42.8,23.0,46,30.25,10.0,South,9.2,-,N/A,,Clear,180,2012-11-13 17:54:00
12:14 PM,42.8,19.4,39,30.24,10.0,SSW,13.8,-,N/A,,Clear,200,2012-11-13 18:14:00
12:54 PM,42.8,21.2,42,30.23,10.0,South,12.7,-,N/A,,Clear,190,2012-11-13 18:54:00
1:14 PM,42.8,23.0,46,30.22,10.0,South,11.5,-,N/A,,Clear,190,2012-11-13 19:14:00
1:35 PM,44.6,23.0,43,30.22,10.0,South,15.0,-,N/A,,Clear,190,2012-11-13 19:35:00
1:54 PM,44.6,23.0,43,30.22,10.0,SSW,12.7,-,N/A,,Mostly Cloudy,200,2012-11-13 19:54:00
2:14 PM,42.8,23.0,46,30.22,10.0,South,9.2,-,N/A,,Overcast,190,2012-11-13 20:14:00
2:35 PM,42.8,26.6,53,30.22,10.0,South,8.1,-,N/A,,Overcast,190,2012-11-13 20:35:00
2:54 PM,42.8,26.6,53,30.21,10.0,South,8.1,-,N/A,,Overcast,190,2012-11-13 20:54:00
3:14 PM,42.8,26.6,53,30.21,10.0,South,5.8,-,N/A,,Overcast,180,2012-11-13 21:14:00
3:35 PM,44.6,26.6,49,30.21,10.0,South,5.8,-,N/A,,Overcast,190,2012-11-13 21:35:00
3:54 PM,42.8,26.6,53,30.22,10.0,SSW,6.9,-,N/A,,Overcast,200,2012-11-13 21:54:00
4:14 PM,42.8,26.6,53,30.21,10.0,Calm,Calm,-,N/A,,Overcast,0,2012-11-13 22:14:00
4:35 PM,41.0,28.4,61,30.21,10.0,South,5.8,-,N/A,,Overcast,170,2012-11-13 22:35:00
4:54 PM,41.0,26.6,57,30.22,10.0,SSE,3.5,-,N/A,,Mostly Cloudy,160,2012-11-13 22:54:00
5:14 PM,37.4,26.6,65,30.22,10.0,South,4.6,-,N/A,,Mostly Cloudy,190,2012-11-13 23:14:00
5:35 PM,35.6,28.4,75,30.23,10.0,SSW,3.5,-,N/A,,Overcast,200,2012-11-13 23:35:00
5:54 PM,37.4,26.6,65,30.23,10.0,Calm,Calm,-,N/A,,Overcast,0,2012-11-13 23:54:00
6:15 PM,35.6,28.4,75,30.23,10.0,NE,3.5,-,N/A,,Overcast,40,2012-11-14 00:15:00
6:34 PM,35.6,28.4,75,30.22,10.0,Calm,Calm,-,N/A,,Overcast,0,2012-11-14 00:34:00
6:54 PM,35.6,28.4,75,30.22,10.0,Calm,Calm,-,N/A,,Overcast,0,2012-11-14 00:54:00
7:15 PM,35.6,28.4,75,30.23,10.0,Calm,Calm,-,N/A,,Overcast,0,2012-11-14 01:15:00
7:34 PM,35.6,28.4,75,30.23,10.0,Calm,Calm,-,N/A,,Overcast,0,2012-11-14 01:34:00
7:55 PM,35.6,28.4,75,30.23,10.0,Calm,Calm,-,N/A,,Overcast,0,2012-11-14 01:55:00
8:14 PM,35.6,28.4,75,30.23,10.0,Calm,Calm,-,N/A,,Overcast,0,2012-11-14 02:14:00
8:35 PM,35.6,28.4,75,30.23,10.0,Calm,Calm,-,N/A,,Overcast,0,2012-11-14 02:35:00
8:55 PM,33.8,28.4,81,30.23,10.0,Calm,Calm,-,N/A,,Overcast,0,2012-11-14 02:55:00
9:14 PM,33.8,28.4,81,30.23,10.0,Calm,Calm,-,N/A,,Overcast,0,2012-11-14 03:14:00
9:35 PM,33.8,28.4,81,30.23,10.0,Calm,Calm,-,N/A,,Mostly Cloudy,0,2012-11-14 03:35:00
9:55 PM,33.8,28.4,81,30.23,10.0,Calm,Calm,-,N/A,,Mostly Cloudy,0,2012-11-14 03:55:00
10:14 PM,33.8,28.4,81,30.23,10.0,NNW,3.5,-,N/A,,Overcast,340,2012-11-14 04:14:00
10:35 PM,33.8,28.4,81,30.24,10.0,NNW,4.6,-,N/A,,Overcast,330,2012-11-14 04:35:00
10:55 PM,33.8,28.4,81,30.24,10.0,Calm,Calm,-,N/A,,Overcast,0,2012-11-14 04:55:00
11:14 PM,33.8,28.4,81,30.24,10.0,North,4.6,-,N/A,,Overcast,350,2012-11-14 05:14:00
11:35 PM,33.8,28.4,81,30.23,10.0,Calm,Calm,-,N/A,,Overcast,0,2012-11-14 05:35:00
11:54 PM,33.8,28.4,81,30.24,10.0,Calm,Calm,-,N/A,,Overcast,0,2012-11-14 05:54:00